Stations météo

réclame
Mon MeteoGroup
Kirkwall, Grande-Bretagne (3017): Température de l'air & dewpoint: 11.01.2019 23:00:00 - 17.01.2019 23:00:00 (GMT)Kirkwall, Grande-Bretagne (3017): Température de l'air -20cm & Température de l'air -100cm: 11.01.2019 23:00:00 - 17.01.2019 23:00:00 (GMT)Kirkwall, Grande-Bretagne (3017): Vitesse du vent & gusts: 11.01.2019 23:00:00 - 17.01.2019 23:00:00 (GMT)Kirkwall, Grande-Bretagne (3017): Direction du vent: 11.01.2019 23:00:00 - 17.01.2019 23:00:00 (GMT)Kirkwall, Grande-Bretagne (3017): reduced air pressure: 11.01.2019 23:00:00 - 17.01.2019 23:00:00 (GMT)Kirkwall, Grande-Bretagne (3017): visibility: 11.01.2019 23:00:00 - 17.01.2019 23:00:00 (GMT)Kirkwall, Grande-Bretagne (3017): Ensoleillement: 11.01.2019 23:00:00 - 17.01.2019 23:00:00 (GMT)Kirkwall, Grande-Bretagne (3017): Quantités de précipitations: 11.01.2019 23:00:00 - 17.01.2019 23:00:00 (GMT)
Date & Time tt [°C] td [°C] tt -20cm [°C] tt -100cm [°C] ff [km/h] ff [knt] fx [km/h] fx [knt] dd ppp [hPa] vv [km] sd [min] rr [mm]
17.01.2019 23:00:00 0,8 -0,6 - - 11 6 - - WSW 1014,6 30 0 0,0
17.01.2019 22:00:00 0,9 -0,8 - - 15 8 - - WSW 1014,8 28 0 0,0
17.01.2019 21:00:00 0,6 -1,1 - - 9 5 - - W 1014,9 30 0 0,0
17.01.2019 20:00:00 0,7 -1,6 - - 15 8 - - WSW 1014,8 30 0 0,0
17.01.2019 19:00:00 0,7 -1,0 - - 11 6 - - WSW 1014,8 30 0 0,0
17.01.2019 18:00:00 2,0 -0,5 - - 26 14 - - N 1014,6 50 0 0,0
17.01.2019 17:00:00 1,5 -0,7 - - 11 6 - - WNW 1014,4 26 0 0,0
17.01.2019 16:00:00 1,3 -1,1 - - 5 3 - - W 1014,1 23 0 0,0
17.01.2019 15:00:00 2,5 -0,4 - - 9 5 - - NW 1013,7 29 6 0,0
17.01.2019 14:00:00 3,6 1,0 - - 22 12 46 25 N 1013,5 22 30 0,0
17.01.2019 13:00:00 3,7 0,8 - - 22 12 54 29 N 1013,1 12 36 0,0
17.01.2019 12:00:00 4,5 -0,6 - - 26 14 - - NNW 1012,5 15 30 0,0
17.01.2019 11:00:00 4,3 0,0 - - 26 14 48 26 N 1011,9 18 12 0,0
17.01.2019 10:00:00 4,8 -0,6 - - 31 17 52 28 N 1011,1 17 0 0,0
17.01.2019 09:00:00 4,0 -1,1 5,7 6,7 37 20 59 32 N 1010,1 30 0 0,2
17.01.2019 08:00:00 3,3 0,5 - - 42 23 61 33 N 1009,0 16 0 0,2
17.01.2019 07:00:00 2,5 0,7 - - 46 25 76 41 N 1007,8 19 0 0,2
17.01.2019 06:00:00 3,3 -0,9 - - 50 27 70 38 NNW 1006,3 19 0 0,4
17.01.2019 05:00:00 2,2 -0,7 - - 39 21 78 42 N 1005,6 7 0 0,0
17.01.2019 04:00:00 2,9 -0,9 - - 46 25 91 49 NNE 1004,3 19 0 0,0
17.01.2019 03:00:00 3,1 -3,4 - - 63 34 91 49 N 1002,5 20 0 0,0
17.01.2019 02:00:00 2,5 -2,4 - - 59 32 80 43 N 1001,3 5 0 0,6
17.01.2019 01:00:00 2,6 -1,7 - - 50 27 80 43 NNW 1000,3 10 0 0,6
17.01.2019 00:00:00 2,5 -2,7 - - 48 26 80 43 NNW 1000,0 22 - 0,0
16.01.2019 23:00:00 1,0 -1,5 - - 54 29 83 45 NNW 1000,4 12 0 0,0
16.01.2019 22:00:00 2,2 -2,0 - - 34 18 68 37 NNW 998,8 27 0 0,2
16.01.2019 21:00:00 1,8 -3,7 - - 35 19 65 35 NW 998,3 40 0 0,0
16.01.2019 20:00:00 2,3 -2,1 - - 41 22 67 36 N 997,3 30 0 0,2
16.01.2019 19:00:00 1,3 -0,7 - - 54 29 70 38 NNW 996,4 18 0 0,2
16.01.2019 18:00:00 2,1 0,2 - - 46 25 67 36 NNW 995,6 17 0 0,2
16.01.2019 17:00:00 3,6 1,3 - - 44 24 59 32 N 994,2 26 0 0,0
16.01.2019 16:00:00 3,0 1,8 - - 42 23 55 30 N 993,4 30 0 0,2
16.01.2019 15:00:00 3,9 2,3 - - 28 15 - - N 992,4 10 0 0,0
16.01.2019 14:00:00 4,4 2,6 - - 9 5 - - NW 991,8 50 0 0,0
16.01.2019 13:00:00 4,2 2,9 - - 9 5 - - NW 991,6 35 0 0,0
16.01.2019 12:00:00 4,1 2,8 - - 0 0 - - N 991,6 45 0 0,2
16.01.2019 11:00:00 4,2 3,1 - - 9 5 - - WNW 991,5 19 0 0,2
16.01.2019 10:00:00 4,0 2,6 - - 11 6 - - W 991,2 35 0 0,2
16.01.2019 09:00:00 4,4 2,9 5,9 6,7 9 5 - - W 990,9 27 0 0,0
16.01.2019 08:00:00 5,3 2,6 - - 15 8 - - NNW 990,4 - 0 0,0
16.01.2019 07:00:00 5,3 2,6 - - 21 11 - - NNW 990,0 26 0 0,0
16.01.2019 06:00:00 5,2 2,6 - - 34 18 46 25 NNW 989,9 30 0 0,0
16.01.2019 05:00:00 5,3 3,2 - - 28 15 67 36 NW 989,7 25 0 0,0
16.01.2019 04:00:00 6,0 3,4 - - 44 24 80 43 W 988,8 22 0 0,0
16.01.2019 03:00:00 6,4 3,0 - - 50 27 81 44 W 988,4 - 0 0,0
16.01.2019 02:00:00 7,1 4,3 - - 48 26 78 42 WSW 988,7 18 0 0,0
16.01.2019 01:00:00 7,4 4,4 - - 52 28 78 42 WSW 989,0 20 0 0,0
16.01.2019 00:00:00 7,7 5,2 - - 52 28 76 41 WSW 989,4 15 - 0,2
15.01.2019 23:00:00 8,0 7,5 - - 34 18 50 27 SW 989,8 35 0 0,4
15.01.2019 22:00:00 7,6 7,3 - - 31 17 - - SSW 990,9 3,3 0 2,0
15.01.2019 21:00:00 7,3 7,0 - - 26 14 - - SSW 992,4 3,1 0 1,6
15.01.2019 20:00:00 7,2 6,9 - - 22 12 - - SSW 993,7 6 0 2,0
15.01.2019 19:00:00 6,8 6,6 - - 16 9 - - SSW 995,1 6 0 1,0
15.01.2019 18:00:00 5,0 4,6 - - 11 6 - - SSE 996,8 6 0 1,0
15.01.2019 17:00:00 5,3 4,9 - - 11 6 - - S 998,0 7 0 0,8
15.01.2019 16:00:00 5,1 4,5 - - 2 1 - - S 999,2 7 0 1,6
15.01.2019 15:00:00 5,7 5,0 - - 15 8 - - SW 1000,2 7 0 1,4
15.01.2019 14:00:00 5,8 4,9 - - 16 9 - - WSW 1001,1 8 0 1,0
15.01.2019 13:00:00 6,0 5,0 - - 16 9 - - WSW 1001,6 13 0 0,4
15.01.2019 12:00:00 6,0 4,3 - - 21 11 - - W 1002,3 10 0 0,2
15.01.2019 11:00:00 6,3 2,8 - - 26 14 - - W 1002,9 12 0 0,0
15.01.2019 10:00:00 6,9 3,7 - - 21 11 - - W 1003,0 - 0 0,0
15.01.2019 09:00:00 7,1 3,2 5,7 6,7 22 12 - - W 1003,2 - 0 0,0
15.01.2019 08:00:00 6,6 4,0 - - 16 9 - - W 1002,5 11 0 0,0
15.01.2019 07:00:00 6,9 3,2 - - 24 13 - - W 1002,2 - 0 0,0
15.01.2019 06:00:00 7,2 4,7 - - 28 15 50 27 W 1002,4 10 0 0,0
15.01.2019 05:00:00 7,7 4,4 - - 24 13 - - W 1002,4 10 0 0,0
15.01.2019 04:00:00 7,6 4,4 - - 28 15 68 37 W 1001,9 9 0 0,0
15.01.2019 03:00:00 8,7 7,9 - - 41 22 70 38 W 1001,7 21 0 1,2
15.01.2019 02:00:00 9,4 8,5 - - 52 28 74 40 WSW 1001,4 2,5 0 0,0
15.01.2019 01:00:00 8,9 7,9 - - 50 27 68 37 WSW 1002,2 10 0 0,2
15.01.2019 00:00:00 8,0 7,4 - - 35 19 55 30 SW 1003,0 8 - 1,8
14.01.2019 23:00:00 7,0 6,6 - - 31 17 - - SW 1004,6 6 0 1,6
14.01.2019 22:00:00 6,0 5,7 - - 26 14 - - SSW 1005,8 3,9 0 0,8
14.01.2019 21:00:00 5,4 5,0 - - 26 14 - - SSW 1007,3 4,4 0 1,0
14.01.2019 20:00:00 6,0 5,3 - - 21 11 - - WSW 1008,4 7 0 0,2
14.01.2019 19:00:00 5,6 4,6 - - 18 10 - - W 1009,6 10 0 0,2
14.01.2019 18:00:00 5,2 3,9 - - 18 10 - - W 1010,5 19 0 0,6
14.01.2019 17:00:00 5,4 2,5 - - 18 10 - - W 1010,8 18 0 0,0
14.01.2019 16:00:00 4,7 2,6 - - 16 9 - - W 1010,8 20 0 0,0
14.01.2019 15:00:00 4,8 1,8 - - 24 13 57 31 W 1011,0 30 0 0,0
14.01.2019 14:00:00 3,3 1,9 - - 18 10 - - W 1011,4 45 6 0,6
14.01.2019 13:00:00 3,4 2,3 - - 35 19 55 30 WSW 1011,9 30 0 0,8
14.01.2019 12:00:00 3,8 0,1 - - 35 19 46 25 SW 1012,4 40 0 0,0
14.01.2019 11:00:00 3,7 1,1 - - 29 16 - - WSW 1013,7 30 0 0,0
14.01.2019 10:00:00 1,8 -0,7 - - 13 7 - - SW 1014,3 45 0 0,0
14.01.2019 09:00:00 0,4 -1,9 6,2 6,7 9 5 - - WSW 1014,7 45 0 0,0
14.01.2019 08:00:00 0,8 -2,2 - - 13 7 - - W 1014,9 45 0 0,0
14.01.2019 07:00:00 1,0 -1,0 - - 11 6 - - WNW 1014,7 45 0 0,0
14.01.2019 06:00:00 2,5 -2,2 - - 15 8 - - WNW 1014,7 45 0 0,0
14.01.2019 05:00:00 2,7 -2,7 - - 24 13 52 28 NW 1014,5 50 0 0,0
14.01.2019 04:00:00 2,7 -3,4 - - 31 17 50 27 NW 1014,5 40 0 0,0
14.01.2019 03:00:00 2,6 -3,1 - - 34 18 52 28 NW 1014,1 35 0 0,0
14.01.2019 02:00:00 1,2 -0,7 - - 28 15 65 35 NW 1013,8 19 0 0,2
14.01.2019 01:00:00 2,4 0,3 - - 24 13 50 27 NW 1013,1 28 0 0,0
14.01.2019 00:00:00 2,2 -0,3 - - 29 16 50 27 NNW 1012,3 40 - 0,0
13.01.2019 23:00:00 2,9 -1,6 - - 34 18 - - NNW 1011,4 25 0 0,0
13.01.2019 22:00:00 2,7 -1,2 - - 31 17 46 25 N 1010,5 26 0 0,0
13.01.2019 21:00:00 2,3 0,6 - - 31 17 54 29 NNE 1009,7 14 0 0,2
13.01.2019 20:00:00 2,2 1,1 - - 34 18 54 29 NNE 1008,3 30 0 0,2
13.01.2019 19:00:00 2,6 1,0 - - 42 23 52 28 NNE 1006,4 17 0 0,0
13.01.2019 18:00:00 3,4 0,9 - - 34 18 46 25 NE 1004,2 23 0 0,0
13.01.2019 17:00:00 3,4 2,3 - - 31 17 - - NE 1002,4 11 0 2,4
13.01.2019 16:00:00 4,4 3,4 - - 11 6 - - ENE 1000,2 20 0 1,6
13.01.2019 15:00:00 5,4 3,9 - - 26 14 54 29 N 998,8 30 0 0,2
13.01.2019 14:00:00 6,6 4,6 - - 24 13 52 28 NW 997,8 17 0 0,8
13.01.2019 13:00:00 7,0 4,9 - - 31 17 61 33 NW 997,9 20 6 0,6
13.01.2019 12:00:00 7,3 4,1 - - 37 20 61 33 WNW 997,2 21 30 0,0
13.01.2019 11:00:00 7,8 4,7 - - 39 21 59 32 WNW 996,8 17 24 0,0
13.01.2019 10:00:00 7,3 5,4 - - 34 18 59 32 WNW 996,5 13 0 0,2
13.01.2019 09:00:00 6,9 5,5 6,2 6,7 31 17 63 34 W 996,1 13 0 0,4
13.01.2019 08:00:00 7,3 5,0 - - 42 23 72 39 W 995,5 15 0 1,0
13.01.2019 07:00:00 7,9 5,4 - - 48 26 70 38 W 995,4 13 0 0,0
13.01.2019 06:00:00 8,3 5,8 - - 52 28 70 38 W 995,9 14 0 0,0
13.01.2019 05:00:00 8,5 6,1 - - 44 24 70 38 W 996,7 18 0 0,2
13.01.2019 04:00:00 9,0 7,5 - - 48 26 78 42 W 997,1 14 0 0,0
13.01.2019 03:00:00 9,1 8,2 - - 48 26 72 39 W 997,8 14 0 0,4
13.01.2019 02:00:00 9,3 8,9 - - 46 25 67 36 W 998,6 3,1 0 0,4
13.01.2019 01:00:00 9,3 8,9 - - 46 25 67 36 W 999,1 2,8 0 0,8
13.01.2019 00:00:00 9,3 8,7 - - 50 27 68 37 W 999,7 2,9 - 0,8
12.01.2019 23:00:00 9,2 8,7 - - 50 27 67 36 W 1000,2 3,4 0 2,0
12.01.2019 22:00:00 9,2 8,7 - - 48 26 68 37 W 1000,6 3,5 0 0,8
12.01.2019 21:00:00 9,1 8,7 - - 39 21 55 30 W 1001,4 5 0 1,0
12.01.2019 20:00:00 8,8 8,5 - - 26 14 - - W 1002,9 6 0 0,2
12.01.2019 19:00:00 8,0 7,4 - - 21 11 - - W 1004,0 5 0 0,2
12.01.2019 18:00:00 7,8 6,8 - - 28 15 - - W 1004,8 8 0 0,0
12.01.2019 17:00:00 7,8 6,4 - - 29 16 - - W 1005,3 22 0 0,0
12.01.2019 16:00:00 7,4 5,6 - - 26 14 50 27 WNW 1005,6 17 0 0,0
12.01.2019 15:00:00 7,9 5,9 - - 31 17 55 30 WNW 1005,8 13 0 0,0
12.01.2019 14:00:00 8,0 5,7 - - 39 21 57 31 WNW 1006,0 16 12 0,0
12.01.2019 13:00:00 7,9 6,3 - - 31 17 63 34 W 1006,2 11 12 0,0
12.01.2019 12:00:00 7,6 6,0 - - 42 23 59 32 W 1006,5 7 6 0,2
12.01.2019 11:00:00 7,3 5,5 - - 44 24 83 45 W 1006,5 14 0 0,2
12.01.2019 10:00:00 7,0 6,0 - - 39 21 63 34 W 1006,7 5 0 0,8
12.01.2019 09:00:00 7,1 5,5 6,2 6,7 35 19 65 35 W 1007,1 15 0 0,8
12.01.2019 08:00:00 7,4 5,4 - - 34 18 54 29 W 1007,2 9 0 0,0
12.01.2019 07:00:00 7,0 5,0 - - 34 18 59 32 W 1007,1 17 0 0,2
12.01.2019 06:00:00 7,4 5,4 - - 37 20 55 30 W 1007,2 16 0 0,2
12.01.2019 05:00:00 7,3 5,7 - - 39 21 67 36 W 1007,6 12 0 1,0
12.01.2019 04:00:00 7,0 5,0 - - 44 24 61 33 W 1007,9 4,0 0 0,2
12.01.2019 03:00:00 7,2 5,6 - - 46 25 67 36 W 1008,1 14 0 0,2
12.01.2019 02:00:00 6,6 5,3 - - 29 16 72 39 W 1008,5 13 0 1,0
12.01.2019 01:00:00 7,7 6,0 - - 44 24 61 33 W 1009,1 3,6 0 0,0
12.01.2019 00:00:00 8,1 6,4 - - 42 23 55 30 WSW 1010,0 9 - 0,4
11.01.2019 23:00:00 7,0 6,4 - - 29 16 - - SSW 1011,3 3,6 0 1,6

tt = Température de l'air
td = dewpoint
tt -20cm = Température de l'air -20cm
tt -100cm = Température de l'air -100cm
ff = Vitesse du vent
fx = gusts
dd = Direction du vent
ppp = reduced air pressure
vv = visibility
sd = Ensoleillement
rr = Quantités de précipitations

stations d'obs. à proximité